This is the latest recevied weather packets stored in our database for station/object R2AKT-13. If no packets are shown the sender has not sent any weather packets the latest 10 day(s).
| Time | Temp. | Humidity | Pressure | Rain* | Wind** | Luminosity | Snow |
|---|---|---|---|---|---|---|---|
| 1788419913 | 16.11° C | 73% | 989.7 hPa | - | 0 m/s | - | - |
| 1788419401 | 16.11° C | 73% | 989.7 hPa | - | 0.45 m/s, 242° | - | - |
| 1788418861 | 16.11° C | 74% | 989.6 hPa | - | 0.45 m/s, 245° | - | - |
| 1788418365 | 16.11° C | 74% | 989.6 hPa | - | 0.45 m/s, 236° | - | - |
| 1788417845 | 16.11° C | 75% | 989.5 hPa | - | 0.45 m/s, 274° | - | - |
| 1788417336 | 15.56° C | 76% | 989.5 hPa | - | 0.45 m/s, 261° | - | - |
| 1788416856 | 15.56° C | 77% | 989.4 hPa | - | 0.45 m/s, 248° | - | - |
| 1788416286 | 15.56° C | 76% | 989.5 hPa | - | 0 m/s | - | - |
| 1788415761 | 15° C | 79% | 989.5 hPa | - | 0.45 m/s, 231° | - | - |
| 1788415221 | 15° C | 79% | 989.4 hPa | - | 0.45 m/s, 251° | - | - |
| 1788414686 | 15° C | 78% | 989.4 hPa | - | 0.45 m/s, 233° | - | - |
| 1788414121 | 15° C | 78% | 989.3 hPa | - | 0.45 m/s, 270° | - | - |
| 1788413525 | 15° C | 78% | 989.3 hPa | - | 0.45 m/s, 168° | - | - |
| 1788413025 | 15° C | 78% | 989.2 hPa | - | 0.45 m/s, 233° | - | - |
| 1788412436 | 15° C | 79% | 989.3 hPa | - | 0.45 m/s, 240° | - | - |
| 1788411926 | 14.44° C | 80% | 989.3 hPa | - | 0 m/s | - | - |
| 1788411381 | 14.44° C | 81% | 989.2 hPa | - | 0 m/s | - | - |
| 1788410901 | 14.44° C | 80% | 989.2 hPa | - | 0.45 m/s, 251° | - | - |
| 1788410336 | 14.44° C | 80% | 989.2 hPa | - | 0 m/s | - | - |
| 1788409778 | 14.44° C | 80% | 989.2 hPa | - | 0.45 m/s, 258° | - | - |
| 1788409181 | 14.44° C | 80% | 989.2 hPa | - | 0.45 m/s, 235° | - | - |
| 1788408584 | 14.44° C | 79% | 989 hPa | - | 0.89 m/s, 220° | - | - |
| 1788408011 | 14.44° C | 79% | 989 hPa | - | 2.24 m/s, 264° | - | - |
| 1788407516 | 14.44° C | 80% | 989 hPa | - | 1.34 m/s, 266° | - | - |
| 1788407013 | 14.44° C | 80% | 989 hPa | - | 0.89 m/s, 264° | - | - |
* Rain since midnight (hover to see other rain measurements)
** Current wind speed in m/s (hover to see current wind gust speed)